{"data":{"norad_id":33321,"intl_designator":"2008-041B","name":"HUANJING 1B (HJ-1B)","alt_names":[],"object_type":"PAYLOAD","status":"ACTIVE","operator":null,"country":"PRC","launch_date":"2008-09-06","launch_site_code":"TAISC","launch_vehicle":null,"mission":null,"orbit_class":"UNKNOWN","rcs_meters":1.372,"size_class":null,"mass_kg":null,"dimensions":null,"purposes":["earth_obs"],"wikipedia_slug":null,"has_3d_model":false,"image_url":null,"decayed_at":null,"tle_current":{"epoch":"2026-05-25T04:46:58.890144Z","epoch_age_seconds":51813,"freshness":"FRESH","line1":"1 33321U 08041B   26145.19929271  .00001328  00000+0  16708-3 0  9991","line2":"2 33321  97.6516 135.1702 0034702 258.7415 100.9898 14.83272634955009","mean_motion":14.83272634,"eccentricity":0.0034702,"inclination_deg":97.6516,"raan_deg":135.1702,"arg_perigee_deg":258.7415,"mean_anomaly_deg":100.9898,"bstar":0.00016708,"rev_number":95500,"period_min":97.082624393649,"perigee_km":594.73150760407,"apogee_km":643.29452758619,"semimajor_km":6997.1500175951,"source":"CELESTRAK","updated_at":"2026-05-25T13:38:13.162893Z"}}}